contact:dominique.lefevre@mio.osupytheas.fr, maurice.libes@osupytheas.fr, didier.mallarino@osupytheas.fr
Project:EMSO http://www.emso-fr.org/EMSO-France
Depth: 2436.0 m
Title:EMSO Ligure Ouest : Data MII capteur MICROCAT
DateTime_Computer,Latitude,Longitude,Temperature,Conductivity,Pressure,DateTime_Instrument
DateTime_Computer,Latitude,Longitude,degC,S m-1,dbar,DateTime_Instrument
2023-07-29T00:01:39Z,42.805,6.029,13.3026,4.60086,2470.707,2023-7-29T02:03:56Z
2023-07-29T00:04:42Z,42.805,6.029,13.3026,4.60086,2470.693,2023-7-29T02:06:59Z
2023-07-29T00:07:45Z,42.805,6.029,13.3027,4.60088,2470.684,2023-7-29T02:10:02Z
2023-07-29T00:10:48Z,42.805,6.029,13.3023,4.60086,2470.717,2023-7-29T02:13:06Z
2023-07-29T00:13:51Z,42.805,6.029,13.3027,4.60087,2470.684,2023-7-29T02:16:09Z
2023-07-29T00:16:54Z,42.805,6.029,13.3025,4.60087,2470.67,2023-7-29T02:19:12Z
2023-07-29T00:19:57Z,42.805,6.029,13.3028,4.60086,2470.693,2023-7-29T02:22:15Z
2023-07-29T00:23:00Z,42.805,6.029,13.3026,4.60086,2470.679,2023-7-29T02:25:18Z
2023-07-29T00:26:03Z,42.805,6.029,13.3026,4.60087,2470.717,2023-7-29T02:28:21Z
2023-07-29T00:29:06Z,42.805,6.029,13.3026,4.60086,2470.693,2023-7-29T02:31:24Z
2023-07-29T00:32:09Z,42.805,6.029,13.3026,4.60088,2470.73,2023-7-29T02:34:27Z
2023-07-29T00:35:12Z,42.805,6.029,13.3026,4.60087,2470.67,2023-7-29T02:37:30Z
2023-07-29T00:38:15Z,42.805,6.029,13.3030,4.60087,2470.73,2023-7-29T02:40:33Z
2023-07-29T00:41:19Z,42.805,6.029,13.3027,4.60087,2470.73,2023-7-29T02:43:36Z
2023-07-29T00:44:22Z,42.805,6.029,13.3030,4.60088,2470.684,2023-7-29T02:46:39Z
2023-07-29T00:47:25Z,42.805,6.029,13.3028,4.60087,2470.717,2023-7-29T02:49:43Z
2023-07-29T00:50:28Z,42.805,6.029,13.3027,4.60087,2470.717,2023-7-29T02:52:46Z
2023-07-29T00:53:31Z,42.805,6.029,13.3028,4.60086,2470.73,2023-7-29T02:55:49Z
2023-07-29T00:56:34Z,42.805,6.029,13.3026,4.60087,2470.693,2023-7-29T02:58:52Z
2023-07-29T00:59:37Z,42.805,6.029,13.3026,4.60087,2470.693,2023-7-29T03:01:55Z
2023-07-29T01:02:40Z,42.805,6.029,13.3026,4.60089,2470.707,2023-7-29T03:04:58Z
2023-07-29T01:05:43Z,42.805,6.029,13.3028,4.60087,2470.707,2023-7-29T03:08:01Z
2023-07-29T01:08:46Z,42.805,6.029,13.3031,4.60087,2470.693,2023-7-29T03:11:04Z
2023-07-29T01:11:49Z,42.805,6.029,13.3026,4.60087,2470.73,2023-7-29T03:14:07Z
2023-07-29T01:14:52Z,42.805,6.029,13.3028,4.60085,2470.73,2023-7-29T03:17:10Z
2023-07-29T01:17:56Z,42.805,6.029,13.3026,4.60088,2470.693,2023-7-29T03:20:13Z
2023-07-29T01:20:59Z,42.805,6.029,13.3029,4.60086,2470.717,2023-7-29T03:23:16Z
2023-07-29T01:24:02Z,42.805,6.029,13.3031,4.60088,2470.707,2023-7-29T03:26:20Z
2023-07-29T01:27:05Z,42.805,6.029,13.3030,4.60089,2470.73,2023-7-29T03:29:23Z
2023-07-29T01:30:08Z,42.805,6.029,13.3034,4.60087,2470.717,2023-7-29T03:32:26Z
2023-07-29T01:33:11Z,42.805,6.029,13.3026,4.60089,2470.763,2023-7-29T03:35:29Z
2023-07-29T01:36:14Z,42.805,6.029,13.3026,4.60087,2470.717,2023-7-29T03:38:32Z
2023-07-29T01:39:17Z,42.805,6.029,13.3028,4.60088,2470.717,2023-7-29T03:41:35Z
2023-07-29T01:42:20Z,42.805,6.029,13.3027,4.60087,2470.693,2023-7-29T03:44:38Z
2023-07-29T01:45:23Z,42.805,6.029,13.3029,4.60090,2470.707,2023-7-29T03:47:41Z
2023-07-29T01:48:26Z,42.805,6.029,13.3029,4.60087,2470.707,2023-7-29T03:50:44Z
2023-07-29T01:51:29Z,42.805,6.029,13.3031,4.60087,2470.67,2023-7-29T03:53:47Z
2023-07-29T01:54:33Z,42.805,6.029,13.3030,4.60087,2470.693,2023-7-29T03:56:50Z
2023-07-29T01:57:36Z,42.805,6.029,13.3026,4.60086,2470.717,2023-7-29T03:59:54Z
2023-07-29T02:00:39Z,42.805,6.029,13.3029,4.60086,2470.717,2023-7-29T04:02:57Z
2023-07-29T02:03:42Z,42.805,6.029,13.3028,4.60089,2470.74,2023-7-29T04:06:00Z
2023-07-29T02:06:45Z,42.805,6.029,13.3026,4.60088,2470.73,2023-7-29T04:09:03Z
2023-07-29T02:09:48Z,42.805,6.029,13.3028,4.60088,2470.73,2023-7-29T04:12:06Z
2023-07-29T02:12:51Z,42.805,6.029,13.3029,4.60088,2470.73,2023-7-29T04:15:09Z
2023-07-29T02:15:54Z,42.805,6.029,13.3028,4.60107,2470.73,2023-7-29T04:18:12Z
2023-07-29T02:18:57Z,42.805,6.029,13.3029,4.60091,2470.717,2023-7-29T04:21:15Z
2023-07-29T02:22:00Z,42.805,6.029,13.3031,4.60090,2470.693,2023-7-29T04:24:18Z
2023-07-29T02:25:03Z,42.805,6.029,13.3031,4.60091,2470.754,2023-7-29T04:27:21Z
2023-07-29T02:28:07Z,42.805,6.029,13.3046,4.60095,2470.717,2023-7-29T04:30:24Z
2023-07-29T02:31:10Z,42.805,6.029,13.3043,4.60095,2470.73,2023-7-29T04:33:27Z
2023-07-29T02:34:13Z,42.805,6.029,13.3029,4.60087,2470.717,2023-7-29T04:36:31Z
2023-07-29T02:37:16Z,42.805,6.029,13.3029,4.60090,2470.74,2023-7-29T04:39:34Z
2023-07-29T02:40:19Z,42.805,6.029,13.3031,4.60092,2470.717,2023-7-29T04:42:37Z
2023-07-29T02:43:22Z,42.805,6.029,13.3029,4.60092,2470.74,2023-7-29T04:45:40Z
2023-07-29T02:46:25Z,42.805,6.029,13.3040,4.60102,2470.693,2023-7-29T04:48:43Z
2023-07-29T02:49:28Z,42.805,6.029,13.3029,4.60087,2470.74,2023-7-29T04:51:46Z
2023-07-29T02:52:31Z,42.805,6.029,13.3046,4.60112,2470.73,2023-7-29T04:54:49Z
2023-07-29T02:55:34Z,42.805,6.029,13.3024,4.60088,2470.74,2023-7-29T04:57:52Z
2023-07-29T02:58:37Z,42.805,6.029,13.3025,4.60088,2470.74,2023-7-29T05:00:55Z
2023-07-29T03:01:40Z,42.805,6.029,13.3026,4.60087,2470.73,2023-7-29T05:03:58Z
2023-07-29T03:04:43Z,42.805,6.029,13.3026,4.60090,2470.74,2023-7-29T05:07:01Z
2023-07-29T03:07:47Z,42.805,6.029,13.3029,4.60087,2470.74,2023-7-29T05:10:04Z
2023-07-29T03:10:50Z,42.805,6.029,13.3029,4.60088,2470.73,2023-7-29T05:13:07Z
2023-07-29T03:13:53Z,42.805,6.029,13.3029,4.60087,2470.693,2023-7-29T05:16:11Z
2023-07-29T03:16:56Z,42.805,6.029,13.3027,4.60088,2470.74,2023-7-29T05:19:14Z
2023-07-29T03:19:59Z,42.805,6.029,13.3026,4.60087,2470.717,2023-7-29T05:22:17Z
2023-07-29T03:23:02Z,42.805,6.029,13.3028,4.60113,2470.74,2023-7-29T05:25:20Z
2023-07-29T03:26:05Z,42.805,6.029,13.3035,4.60088,2470.74,2023-7-29T05:28:23Z
2023-07-29T03:29:08Z,42.805,6.029,13.3029,4.60090,2470.73,2023-7-29T05:31:26Z
2023-07-29T03:32:11Z,42.805,6.029,13.3025,4.60088,2470.693,2023-7-29T05:34:29Z
2023-07-29T03:35:14Z,42.805,6.029,13.3024,4.60087,2470.74,2023-7-29T05:37:32Z
2023-07-29T03:38:17Z,42.805,6.029,13.3025,4.60090,2470.73,2023-7-29T05:40:35Z
2023-07-29T03:41:21Z,42.805,6.029,13.3026,4.60088,2470.754,2023-7-29T05:43:38Z
2023-07-29T03:44:24Z,42.805,6.029,13.3031,4.60089,2470.717,2023-7-29T05:46:41Z
2023-07-29T03:47:27Z,42.805,6.029,13.3039,4.60104,2470.74,2023-7-29T05:49:45Z
2023-07-29T03:50:30Z,42.805,6.029,13.3029,4.60092,2470.717,2023-7-29T05:52:48Z
2023-07-29T03:53:33Z,42.805,6.029,13.3024,4.60090,2470.717,2023-7-29T05:55:51Z
2023-07-29T03:56:36Z,42.805,6.029,13.3024,4.60091,2470.754,2023-7-29T05:58:54Z
2023-07-29T03:59:39Z,42.805,6.029,13.3026,4.60089,2470.717,2023-7-29T06:01:57Z
2023-07-29T04:02:42Z,42.805,6.029,13.3029,4.60087,2470.717,2023-7-29T06:05:00Z
2023-07-29T04:05:45Z,42.805,6.029,13.3024,4.60091,2470.74,2023-7-29T06:08:03Z
2023-07-29T04:08:48Z,42.805,6.029,13.3028,4.60090,2470.717,2023-7-29T06:11:06Z
2023-07-29T04:11:51Z,42.805,6.029,13.3033,4.60089,2470.763,2023-7-29T06:14:09Z
2023-07-29T04:14:54Z,42.805,6.029,13.3034,4.60093,2470.754,2023-7-29T06:17:12Z
2023-07-29T04:17:57Z,42.805,6.029,13.3025,4.60089,2470.74,2023-7-29T06:20:15Z
2023-07-29T04:21:01Z,42.805,6.029,13.3029,4.60090,2470.74,2023-7-29T06:23:18Z
2023-07-29T04:24:04Z,42.805,6.029,13.3026,4.60088,2470.73,2023-7-29T06:26:22Z
2023-07-29T04:27:07Z,42.805,6.029,13.3025,4.60088,2470.74,2023-7-29T06:29:25Z
2023-07-29T04:30:10Z,42.805,6.029,13.3028,4.60087,2470.74,2023-7-29T06:32:28Z
2023-07-29T04:33:13Z,42.805,6.029,13.3026,4.60087,2470.707,2023-7-29T06:35:31Z
2023-07-29T04:36:16Z,42.805,6.029,13.3023,4.60086,2470.717,2023-7-29T06:38:34Z
2023-07-29T04:39:19Z,42.805,6.029,13.3025,4.60087,2470.717,2023-7-29T06:41:37Z
2023-07-29T04:42:22Z,42.805,6.029,13.3032,4.60089,2470.693,2023-7-29T06:44:40Z
2023-07-29T04:45:25Z,42.805,6.029,13.3024,4.60087,2470.73,2023-7-29T06:47:43Z
2023-07-29T04:48:28Z,42.805,6.029,13.3024,4.60086,2470.754,2023-7-29T06:50:46Z
2023-07-29T04:51:31Z,42.805,6.029,13.3026,4.60087,2470.717,2023-7-29T06:53:49Z
2023-07-29T04:54:35Z,42.805,6.029,13.3028,4.60087,2470.717,2023-7-29T06:56:52Z
2023-07-29T04:57:38Z,42.805,6.029,13.3026,4.60087,2470.754,2023-7-29T06:59:55Z
2023-07-29T05:00:41Z,42.805,6.029,13.3024,4.60087,2470.763,2023-7-29T07:02:59Z
2023-07-29T05:03:44Z,42.805,6.029,13.3026,4.60089,2470.693,2023-7-29T07:06:02Z
2023-07-29T05:06:47Z,42.805,6.029,13.3024,4.60086,2470.73,2023-7-29T07:09:05Z
2023-07-29T05:09:50Z,42.805,6.029,13.3029,4.60087,2470.693,2023-7-29T07:12:08Z
2023-07-29T05:12:53Z,42.805,6.029,13.3029,4.60087,2470.717,2023-7-29T07:15:11Z
2023-07-29T05:15:56Z,42.805,6.029,13.3027,4.60087,2470.717,2023-7-29T07:18:14Z
2023-07-29T05:18:59Z,42.805,6.029,13.3028,4.60089,2470.74,2023-7-29T07:21:17Z
2023-07-29T05:22:02Z,42.805,6.029,13.3024,4.60087,2470.684,2023-7-29T07:24:20Z
2023-07-29T05:25:05Z,42.805,6.029,13.3027,4.60087,2470.717,2023-7-29T07:27:23Z
2023-07-29T05:28:08Z,42.805,6.029,13.3025,4.60087,2470.74,2023-7-29T07:30:26Z
2023-07-29T05:31:11Z,42.805,6.029,13.3026,4.60087,2470.717,2023-7-29T07:33:29Z
2023-07-29T05:34:15Z,42.805,6.029,13.3027,4.60087,2470.73,2023-7-29T07:36:32Z
2023-07-29T05:37:18Z,42.805,6.029,13.3029,4.60087,2470.67,2023-7-29T07:39:36Z
2023-07-29T05:40:21Z,42.805,6.029,13.3025,4.60087,2470.717,2023-7-29T07:42:39Z
2023-07-29T05:43:24Z,42.805,6.029,13.3026,4.60086,2470.73,2023-7-29T07:45:42Z
2023-07-29T05:46:27Z,42.805,6.029,13.3026,4.60087,2470.73,2023-7-29T07:48:45Z
2023-07-29T05:49:30Z,42.805,6.029,13.3024,4.60089,2470.693,2023-7-29T07:51:48Z
2023-07-29T05:52:33Z,42.805,6.029,13.3026,4.60087,2470.693,2023-7-29T07:54:51Z
2023-07-29T05:55:36Z,42.805,6.029,13.3026,4.60086,2470.67,2023-7-29T07:57:54Z
2023-07-29T05:58:39Z,42.805,6.029,13.3027,4.60086,2470.646,2023-7-29T08:00:57Z
2023-07-29T06:01:42Z,42.805,6.029,13.3026,4.60098,2470.67,2023-7-29T08:04:00Z
2023-07-29T06:04:45Z,42.805,6.029,13.3024,4.60087,2470.693,2023-7-29T08:07:03Z
2023-07-29T06:07:48Z,42.805,6.029,13.3028,4.60087,2470.717,2023-7-29T08:10:06Z
2023-07-29T06:10:52Z,42.805,6.029,13.3028,4.60092,2470.707,2023-7-29T08:13:09Z
2023-07-29T06:13:55Z,42.805,6.029,13.3027,4.60089,2470.717,2023-7-29T08:16:12Z
2023-07-29T06:16:58Z,42.805,6.029,13.3027,4.60088,2470.707,2023-7-29T08:19:16Z
2023-07-29T06:20:01Z,42.805,6.029,13.3028,4.60089,2470.693,2023-7-29T08:22:19Z
2023-07-29T06:23:04Z,42.805,6.029,13.3029,4.60087,2470.693,2023-7-29T08:25:22Z
2023-07-29T06:26:07Z,42.805,6.029,13.3027,4.60087,2470.693,2023-7-29T08:28:25Z
2023-07-29T06:29:10Z,42.805,6.029,13.3019,4.60087,2470.679,2023-7-29T08:31:28Z
2023-07-29T06:32:12Z,42.805,6.029,13.3026,4.60088,2470.67,2023-7-29T08:34:30Z
2023-07-29T06:35:15Z,42.805,6.029,13.3024,4.60087,2470.693,2023-7-29T08:37:33Z
2023-07-29T06:38:18Z,42.805,6.029,13.3026,4.60091,2470.707,2023-7-29T08:40:36Z
2023-07-29T06:41:21Z,42.805,6.029,13.3026,4.60087,2470.67,2023-7-29T08:43:39Z
2023-07-29T06:44:24Z,42.805,6.029,13.3026,4.60087,2470.707,2023-7-29T08:46:42Z
2023-07-29T06:47:27Z,42.805,6.029,13.3026,4.60087,2470.707,2023-7-29T08:49:45Z
2023-07-29T06:50:30Z,42.805,6.029,13.3022,4.60089,2470.684,2023-7-29T08:52:48Z
2023-07-29T06:53:33Z,42.805,6.029,13.3025,4.60087,2470.693,2023-7-29T08:55:51Z
2023-07-29T06:56:36Z,42.805,6.029,13.3027,4.60089,2470.67,2023-7-29T08:58:54Z
2023-07-29T06:59:39Z,42.805,6.029,13.3027,4.60090,2470.67,2023-7-29T09:01:57Z
2023-07-29T07:02:42Z,42.805,6.029,13.3027,4.60088,2470.684,2023-7-29T09:05:00Z
2023-07-29T07:05:46Z,42.805,6.029,13.3031,4.60087,2470.67,2023-7-29T09:08:03Z
2023-07-29T07:08:49Z,42.805,6.029,13.3024,4.60087,2470.67,2023-7-29T09:11:07Z
2023-07-29T07:11:52Z,42.805,6.029,13.3026,4.60087,2470.707,2023-7-29T09:14:10Z
2023-07-29T07:14:55Z,42.805,6.029,13.3026,4.60087,2470.693,2023-7-29T09:17:13Z
2023-07-29T07:17:58Z,42.805,6.029,13.3025,4.60086,2470.646,2023-7-29T09:20:16Z
2023-07-29T07:21:01Z,42.805,6.029,13.3024,4.60092,2470.646,2023-7-29T09:23:19Z
2023-07-29T07:24:04Z,42.805,6.029,13.3024,4.60087,2470.707,2023-7-29T09:26:22Z
2023-07-29T07:27:07Z,42.805,6.029,13.3029,4.60087,2470.67,2023-7-29T09:29:25Z
2023-07-29T07:30:10Z,42.805,6.029,13.3024,4.60088,2470.633,2023-7-29T09:32:28Z
2023-07-29T07:33:13Z,42.805,6.029,13.3026,4.60087,2470.684,2023-7-29T09:35:31Z
2023-07-29T07:36:16Z,42.805,6.029,13.3026,4.60086,2470.661,2023-7-29T09:38:34Z
2023-07-29T07:39:19Z,42.805,6.029,13.3025,4.60087,2470.67,2023-7-29T09:41:37Z
2023-07-29T07:42:23Z,42.805,6.029,13.3021,4.60087,2470.67,2023-7-29T09:44:40Z
2023-07-29T07:45:26Z,42.805,6.029,13.3027,4.60087,2470.67,2023-7-29T09:47:44Z
2023-07-29T07:48:29Z,42.805,6.029,13.3025,4.60088,2470.661,2023-7-29T09:50:47Z
2023-07-29T07:51:32Z,42.805,6.029,13.3029,4.60087,2470.661,2023-7-29T09:53:50Z
2023-07-29T07:54:35Z,42.805,6.029,13.3025,4.60086,2470.646,2023-7-29T09:56:53Z
2023-07-29T07:57:38Z,42.805,6.029,13.3027,4.60087,2470.646,2023-7-29T09:59:56Z
2023-07-29T08:00:41Z,42.805,6.029,13.3025,4.60086,2470.684,2023-7-29T10:02:59Z
2023-07-29T08:03:44Z,42.805,6.029,13.3029,4.60090,2470.646,2023-7-29T10:06:02Z
2023-07-29T08:06:47Z,42.805,6.029,13.3027,4.60087,2470.67,2023-7-29T10:09:05Z
2023-07-29T08:09:50Z,42.805,6.029,13.3026,4.60088,2470.661,2023-7-29T10:12:08Z
2023-07-29T08:12:53Z,42.805,6.029,13.3029,4.60086,2470.646,2023-7-29T10:15:11Z
2023-07-29T08:15:57Z,42.805,6.029,13.3026,4.60089,2470.633,2023-7-29T10:18:14Z
2023-07-29T08:19:00Z,42.805,6.029,13.3027,4.60087,2470.646,2023-7-29T10:21:17Z
2023-07-29T08:22:03Z,42.805,6.029,13.3027,4.60086,2470.646,2023-7-29T10:24:21Z
2023-07-29T08:25:06Z,42.805,6.029,13.3026,4.60087,2470.646,2023-7-29T10:27:24Z
2023-07-29T08:28:09Z,42.805,6.029,13.3028,4.60092,2470.624,2023-7-29T10:30:27Z
2023-07-29T08:31:10Z,42.805,6.029,13.3023,4.60085,2470.6,2023-7-29T10:33:28Z
2023-07-29T08:34:13Z,42.805,6.029,13.3027,4.60086,2470.646,2023-7-29T10:36:31Z
2023-07-29T08:37:16Z,42.805,6.029,13.3028,4.60087,2470.6,2023-7-29T10:39:34Z
2023-07-29T08:40:20Z,42.805,6.029,13.3027,4.60086,2470.624,2023-7-29T10:42:37Z
2023-07-29T08:43:23Z,42.805,6.029,13.3026,4.60087,2470.637,2023-7-29T10:45:41Z
2023-07-29T08:46:26Z,42.805,6.029,13.3026,4.60087,2470.624,2023-7-29T10:48:44Z
2023-07-29T08:49:29Z,42.805,6.029,13.3026,4.60087,2470.614,2023-7-29T10:51:47Z
2023-07-29T08:52:32Z,42.805,6.029,13.3029,4.60087,2470.624,2023-7-29T10:54:50Z
2023-07-29T08:55:35Z,42.805,6.029,13.3029,4.60086,2470.646,2023-7-29T10:57:53Z
2023-07-29T08:58:38Z,42.805,6.029,13.3029,4.60088,2470.624,2023-7-29T11:00:56Z
2023-07-29T09:01:41Z,42.805,6.029,13.3029,4.60086,2470.6,2023-7-29T11:03:59Z
2023-07-29T09:04:44Z,42.805,6.029,13.3025,4.60089,2470.591,2023-7-29T11:07:02Z
2023-07-29T09:07:47Z,42.805,6.029,13.3028,4.60087,2470.6,2023-7-29T11:10:05Z
2023-07-29T09:10:50Z,42.805,6.029,13.3027,4.60087,2470.6,2023-7-29T11:13:08Z
2023-07-29T09:13:54Z,42.805,6.029,13.3026,4.60088,2470.586,2023-7-29T11:16:11Z
2023-07-29T09:16:57Z,42.805,6.029,13.3025,4.60087,2470.624,2023-7-29T11:19:15Z
2023-07-29T09:20:00Z,42.805,6.029,13.3024,4.60088,2470.6,2023-7-29T11:22:18Z
2023-07-29T09:23:03Z,42.805,6.029,13.3025,4.60094,2470.661,2023-7-29T11:25:21Z
2023-07-29T09:26:06Z,42.805,6.029,13.3029,4.60090,2470.61,2023-7-29T11:28:24Z
2023-07-29T09:29:09Z,42.805,6.029,13.3027,4.60087,2470.637,2023-7-29T11:31:27Z
2023-07-29T09:32:12Z,42.805,6.029,13.3031,4.60087,2470.6,2023-7-29T11:34:30Z
2023-07-29T09:35:15Z,42.805,6.029,13.3027,4.60086,2470.6,2023-7-29T11:37:33Z
2023-07-29T09:38:18Z,42.805,6.029,13.3026,4.60087,2470.6,2023-7-29T11:40:36Z
2023-07-29T09:41:21Z,42.805,6.029,13.3028,4.60087,2470.6,2023-7-29T11:43:39Z
2023-07-29T09:44:24Z,42.805,6.029,13.3027,4.60087,2470.614,2023-7-29T11:46:42Z
2023-07-29T09:47:28Z,42.805,6.029,13.3029,4.60087,2470.637,2023-7-29T11:49:45Z
2023-07-29T09:50:31Z,42.805,6.029,13.3032,4.60087,2470.624,2023-7-29T11:52:48Z
2023-07-29T09:53:34Z,42.805,6.029,13.3024,4.60087,2470.577,2023-7-29T11:55:52Z
2023-07-29T09:56:37Z,42.805,6.029,13.3026,4.60087,2470.591,2023-7-29T11:58:55Z
2023-07-29T09:59:40Z,42.805,6.029,13.3029,4.60088,2470.624,2023-7-29T12:01:58Z
2023-07-29T10:02:43Z,42.805,6.029,13.3026,4.60087,2470.614,2023-7-29T12:05:01Z
2023-07-29T10:05:46Z,42.805,6.029,13.3029,4.60087,2470.624,2023-7-29T12:08:04Z
2023-07-29T10:08:49Z,42.805,6.029,13.3029,4.60088,2470.6,2023-7-29T12:11:07Z
2023-07-29T10:11:52Z,42.805,6.029,13.3025,4.60087,2470.624,2023-7-29T12:14:10Z
2023-07-29T10:14:55Z,42.805,6.029,13.3025,4.60087,2470.6,2023-7-29T12:17:13Z
2023-07-29T10:17:58Z,42.805,6.029,13.3030,4.60087,2470.577,2023-7-29T12:20:16Z
2023-07-29T10:21:01Z,42.805,6.029,13.3029,4.60088,2470.6,2023-7-29T12:23:19Z
2023-07-29T10:24:05Z,42.805,6.029,13.3027,4.60088,2470.614,2023-7-29T12:26:22Z
2023-07-29T10:27:08Z,42.805,6.029,13.3027,4.60087,2470.553,2023-7-29T12:29:26Z
2023-07-29T10:30:09Z,42.805,6.029,13.3031,4.60088,2470.637,2023-7-29T12:32:27Z
2023-07-29T10:33:12Z,42.805,6.029,13.3028,4.60090,2470.637,2023-7-29T12:35:30Z
2023-07-29T10:36:15Z,42.805,6.029,13.3027,4.60087,2470.6,2023-7-29T12:38:33Z
2023-07-29T10:39:18Z,42.805,6.029,13.3030,4.60088,2470.624,2023-7-29T12:41:36Z
2023-07-29T10:42:21Z,42.805,6.029,13.3031,4.60088,2470.637,2023-7-29T12:44:39Z
2023-07-29T10:45:24Z,42.805,6.029,13.3026,4.60087,2470.624,2023-7-29T12:47:42Z
2023-07-29T10:48:27Z,42.805,6.029,13.3027,4.60088,2470.6,2023-7-29T12:50:45Z
2023-07-29T10:51:31Z,42.805,6.029,13.3026,4.60088,2470.624,2023-7-29T12:53:48Z
2023-07-29T10:54:34Z,42.805,6.029,13.3031,4.60088,2470.6,2023-7-29T12:56:52Z
2023-07-29T10:57:37Z,42.805,6.029,13.3028,4.60087,2470.577,2023-7-29T12:59:55Z
2023-07-29T11:00:40Z,42.805,6.029,13.3029,4.60089,2470.637,2023-7-29T13:02:58Z
2023-07-29T11:03:43Z,42.805,6.029,13.3030,4.60088,2470.614,2023-7-29T13:06:01Z
2023-07-29T11:06:46Z,42.805,6.029,13.3028,4.60091,2470.591,2023-7-29T13:09:04Z
2023-07-29T11:09:49Z,42.805,6.029,13.3026,4.60088,2470.614,2023-7-29T13:12:07Z
2023-07-29T11:12:52Z,42.805,6.029,13.3030,4.60088,2470.577,2023-7-29T13:15:10Z
2023-07-29T11:15:55Z,42.805,6.029,13.3029,4.60099,2470.6,2023-7-29T13:18:13Z
2023-07-29T11:18:58Z,42.805,6.029,13.3030,4.60088,2470.6,2023-7-29T13:21:16Z
2023-07-29T11:22:01Z,42.805,6.029,13.3026,4.60087,2470.614,2023-7-29T13:24:19Z
2023-07-29T11:25:05Z,42.805,6.029,13.3026,4.60089,2470.577,2023-7-29T13:27:22Z
2023-07-29T11:28:08Z,42.805,6.029,13.3026,4.60087,2470.586,2023-7-29T13:30:25Z
2023-07-29T11:31:11Z,42.805,6.029,13.3026,4.60087,2470.646,2023-7-29T13:33:29Z
2023-07-29T11:34:14Z,42.805,6.029,13.3025,4.60089,2470.577,2023-7-29T13:36:32Z
2023-07-29T11:37:17Z,42.805,6.029,13.3031,4.60087,2470.6,2023-7-29T13:39:35Z
2023-07-29T11:40:20Z,42.805,6.029,13.3026,4.60088,2470.6,2023-7-29T13:42:38Z
2023-07-29T11:43:23Z,42.805,6.029,13.3030,4.60089,2470.624,2023-7-29T13:45:41Z
2023-07-29T11:46:26Z,42.805,6.029,13.3028,4.60092,2470.661,2023-7-29T13:48:44Z
2023-07-29T11:49:29Z,42.805,6.029,13.3026,4.60087,2470.646,2023-7-29T13:51:47Z
2023-07-29T11:52:32Z,42.805,6.029,13.3029,4.60092,2470.6,2023-7-29T13:54:50Z
2023-07-29T11:55:35Z,42.805,6.029,13.3028,4.60089,2470.624,2023-7-29T13:57:53Z
2023-07-29T11:58:39Z,42.805,6.029,13.3031,4.60088,2470.624,2023-7-29T14:00:56Z
2023-07-29T12:01:42Z,42.805,6.029,13.3029,4.60092,2470.624,2023-7-29T14:04:00Z
2023-07-29T12:04:45Z,42.805,6.029,13.3028,4.60087,2470.614,2023-7-29T14:07:03Z
2023-07-29T12:07:48Z,42.805,6.029,13.3027,4.60087,2470.624,2023-7-29T14:10:06Z
2023-07-29T12:10:51Z,42.805,6.029,13.3029,4.60087,2470.624,2023-7-29T14:13:09Z
2023-07-29T12:13:54Z,42.805,6.029,13.3029,4.60087,2470.624,2023-7-29T14:16:12Z
2023-07-29T12:16:57Z,42.805,6.029,13.3028,4.60087,2470.624,2023-7-29T14:19:15Z
2023-07-29T12:20:00Z,42.805,6.029,13.3027,4.60089,2470.637,2023-7-29T14:22:18Z
2023-07-29T12:23:03Z,42.805,6.029,13.3031,4.60088,2470.637,2023-7-29T14:25:21Z
2023-07-29T12:26:06Z,42.805,6.029,13.3030,4.60090,2470.646,2023-7-29T14:28:24Z
2023-07-29T12:29:09Z,42.805,6.029,13.3030,4.60088,2470.624,2023-7-29T14:31:27Z
2023-07-29T12:32:13Z,42.805,6.029,13.3024,4.60090,2470.624,2023-7-29T14:34:30Z
2023-07-29T12:35:16Z,42.805,6.029,13.3027,4.60088,2470.614,2023-7-29T14:37:33Z
2023-07-29T12:38:19Z,42.805,6.029,13.3027,4.60087,2470.646,2023-7-29T14:40:37Z
2023-07-29T12:41:22Z,42.805,6.029,13.3030,4.60089,2470.661,2023-7-29T14:43:40Z
2023-07-29T12:44:25Z,42.805,6.029,13.3033,4.60089,2470.637,2023-7-29T14:46:43Z
2023-07-29T12:47:28Z,42.805,6.029,13.3029,4.60088,2470.624,2023-7-29T14:49:46Z
2023-07-29T12:50:31Z,42.805,6.029,13.3033,4.60088,2470.624,2023-7-29T14:52:49Z
2023-07-29T12:53:34Z,42.805,6.029,13.3026,4.60089,2470.637,2023-7-29T14:55:52Z
2023-07-29T12:56:37Z,42.805,6.029,13.3025,4.60089,2470.646,2023-7-29T14:58:55Z
2023-07-29T12:59:40Z,42.805,6.029,13.3028,4.60088,2470.646,2023-7-29T15:01:58Z
2023-07-29T13:02:43Z,42.805,6.029,13.3031,4.60088,2470.646,2023-7-29T15:05:01Z
2023-07-29T13:05:46Z,42.805,6.029,13.3029,4.60088,2470.646,2023-7-29T15:08:04Z
2023-07-29T13:08:50Z,42.805,6.029,13.3029,4.60088,2470.646,2023-7-29T15:11:07Z
2023-07-29T13:11:53Z,42.805,6.029,13.3026,4.60090,2470.646,2023-7-29T15:14:11Z
2023-07-29T13:14:56Z,42.805,6.029,13.3028,4.60087,2470.646,2023-7-29T15:17:14Z
2023-07-29T13:17:59Z,42.805,6.029,13.3026,4.60089,2470.67,2023-7-29T15:20:17Z
2023-07-29T13:21:02Z,42.805,6.029,13.3029,4.60087,2470.67,2023-7-29T15:23:20Z
2023-07-29T13:24:05Z,42.805,6.029,13.3027,4.60088,2470.707,2023-7-29T15:26:23Z
2023-07-29T13:27:08Z,42.805,6.029,13.3025,4.60089,2470.67,2023-7-29T15:29:26Z
2023-07-29T13:30:11Z,42.805,6.029,13.3030,4.60089,2470.67,2023-7-29T15:32:29Z
2023-07-29T13:33:14Z,42.805,6.029,13.3028,4.60089,2470.67,2023-7-29T15:35:32Z
2023-07-29T13:36:17Z,42.805,6.029,13.3026,4.60089,2470.679,2023-7-29T15:38:35Z
2023-07-29T13:39:20Z,42.805,6.029,13.3025,4.60087,2470.693,2023-7-29T15:41:38Z
2023-07-29T13:42:24Z,42.805,6.029,13.3026,4.60087,2470.67,2023-7-29T15:44:41Z
2023-07-29T13:45:27Z,42.805,6.029,13.3026,4.60088,2470.67,2023-7-29T15:47:45Z
2023-07-29T13:48:30Z,42.805,6.029,13.3029,4.60087,2470.661,2023-7-29T15:50:48Z
2023-07-29T13:51:33Z,42.805,6.029,13.3026,4.60088,2470.67,2023-7-29T15:53:51Z
2023-07-29T13:54:36Z,42.805,6.029,13.3029,4.60087,2470.67,2023-7-29T15:56:54Z
2023-07-29T13:57:39Z,42.805,6.029,13.3027,4.60087,2470.707,2023-7-29T15:59:57Z
2023-07-29T14:00:42Z,42.805,6.029,13.3026,4.60090,2470.717,2023-7-29T16:03:00Z
2023-07-29T14:03:45Z,42.805,6.029,13.3031,4.60090,2470.717,2023-7-29T16:06:03Z
2023-07-29T14:06:48Z,42.805,6.029,13.3028,4.60087,2470.717,2023-7-29T16:09:06Z
2023-07-29T14:09:51Z,42.805,6.029,13.3029,4.60088,2470.73,2023-7-29T16:12:09Z
2023-07-29T14:12:54Z,42.805,6.029,13.3029,4.60089,2470.707,2023-7-29T16:15:12Z
2023-07-29T14:15:57Z,42.805,6.029,13.3028,4.60092,2470.693,2023-7-29T16:18:15Z
2023-07-29T14:19:01Z,42.805,6.029,13.3028,4.60090,2470.703,2023-7-29T16:21:18Z
2023-07-29T14:22:04Z,42.805,6.029,13.3026,4.60087,2470.717,2023-7-29T16:24:22Z
2023-07-29T14:25:07Z,42.805,6.029,13.3025,4.60087,2470.74,2023-7-29T16:27:25Z
2023-07-29T14:28:10Z,42.805,6.029,13.3027,4.60087,2470.707,2023-7-29T16:30:28Z
2023-07-29T14:31:12Z,42.805,6.029,13.3027,4.60088,2470.717,2023-7-29T16:33:29Z
2023-07-29T14:34:15Z,42.805,6.029,13.3029,4.60089,2470.717,2023-7-29T16:36:33Z
2023-07-29T14:37:18Z,42.805,6.029,13.3026,4.60087,2470.763,2023-7-29T16:39:36Z
2023-07-29T14:40:21Z,42.805,6.029,13.3027,4.60088,2470.74,2023-7-29T16:42:39Z
2023-07-29T14:43:24Z,42.805,6.029,13.3026,4.60089,2470.73,2023-7-29T16:45:42Z
2023-07-29T14:46:27Z,42.805,6.029,13.3025,4.60088,2470.754,2023-7-29T16:48:45Z
2023-07-29T14:49:30Z,42.805,6.029,13.3030,4.60087,2470.754,2023-7-29T16:51:48Z
2023-07-29T14:52:33Z,42.805,6.029,13.3026,4.60088,2470.73,2023-7-29T16:54:51Z
2023-07-29T14:55:36Z,42.805,6.029,13.3028,4.60088,2470.74,2023-7-29T16:57:54Z
2023-07-29T14:58:39Z,42.805,6.029,13.3028,4.60089,2470.74,2023-7-29T17:00:57Z
2023-07-29T15:01:42Z,42.805,6.029,13.3028,4.60089,2470.754,2023-7-29T17:04:00Z
2023-07-29T15:04:46Z,42.805,6.029,13.3026,4.60088,2470.74,2023-7-29T17:07:03Z
2023-07-29T15:07:49Z,42.805,6.029,13.3029,4.60088,2470.74,2023-7-29T17:10:07Z
2023-07-29T15:10:52Z,42.805,6.029,13.3029,4.60089,2470.74,2023-7-29T17:13:10Z
2023-07-29T15:13:55Z,42.805,6.029,13.3029,4.60090,2470.73,2023-7-29T17:16:13Z